• In Austria
  • List of Countries
  • For 7 days
  • Water Temperature
  • Satellite Maps
  • Weather Map
  • News
  • Weather Widgets
  • user-avatar
    Login

    Hourly Weather Escaldes-Engordany

    Today, 21 June, Thursday

    Time Temperature Precipitation Wind Pressure Humidity
    00:00 +14°C° 0 mm 1 mps 643 mmHg 78%
    01:00 +14°C° 0 mm 1 mps 643 mmHg 79%
    02:00 +14°C° 0 mm 1 mps 643 mmHg 80%
    03:00 +14°C° 0 mm 1 mps 643 mmHg 81%
    04:00 +14°C° 0 mm 1 mps 643 mmHg 80%
    05:00 +15°C° 0 mm 1 mps 643 mmHg 79%
    06:00 +18°C° 0 mm 1 mps 644 mmHg 75%
    07:00 +20°C° 0 mm 1 mps 644 mmHg 67%
    08:00 +21°C° 0 mm 1 mps 645 mmHg 59%
    09:00 +23°C° 0 mm 1 mps 645 mmHg 51%
    10:00 +24°C° 0.1 mm 1 mps 645 mmHg 49%
    11:00 +24°C° 0.1 mm 1 mps 645 mmHg 48%
    12:00 +25°C° 0.1 mm 1 mps 645 mmHg 47%
    13:00 +24°C° 0.2 mm 1 mps 645 mmHg 51%
    14:00 +23°C° 0.2 mm 1 mps 644 mmHg 55%
    15:00 +23°C° 0.2 mm 1 mps 644 mmHg 59%
    16:00 +22°C° 0.2 mm 1 mps 644 mmHg 64%
    17:00 +22°C° 0.2 mm 1 mps 643 mmHg 68%
    18:00 +20°C° 0.2 mm 2 mps 643 mmHg 73%
    19:00 +19°C° 0.1 mm 2 mps 643 mmHg 77%
    20:00 +17°C° 0.1 mm 2 mps 643 mmHg 81%
    21:00 +16°C° 0.1 mm 2 mps 642 mmHg 85%
    22:00 +16°C° 0 mm 2 mps 642 mmHg 86%
    23:00 +15°C° 0 mm 2 mps 642 mmHg 86%

    Tomorrow, 22 June, Friday

    Time Temperature Precipitation Wind Pressure Humidity
    00:00 +15°C° 0 mm 2 mps 642 mmHg 86%
    01:00 +14°C° 0 mm 2 mps 642 mmHg 86%
    02:00 +14°C° 0 mm 2 mps 642 mmHg 86%
    03:00 +14°C° 0 mm 2 mps 641 mmHg 86%
    04:00 +14°C° 0 mm 2 mps 642 mmHg 85%
    05:00 +15°C° 0 mm 2 mps 642 mmHg 83%
    06:00 +16°C° 0 mm 2 mps 643 mmHg 81%
    07:00 +17°C° 0 mm 2 mps 643 mmHg 73%
    08:00 +19°C° 0 mm 2 mps 644 mmHg 66%
    09:00 +21°C° 0 mm 2 mps 644 mmHg 58%
    10:00 +23°C° 0 mm 2 mps 645 mmHg 55%
    11:00 +24°C° 0 mm 2 mps 645 mmHg 52%
    12:00 +24°C° 0 mm 2 mps 645 mmHg 49%
    13:00 +23°C° 0.4 mm 2 mps 644 mmHg 54%
    14:00 +23°C° 0.4 mm 2 mps 644 mmHg 59%
    15:00 +21°C° 0.4 mm 2 mps 644 mmHg 63%
    16:00 +20°C° 0.5 mm 2 mps 643 mmHg 68%
    17:00 +18°C° 0.5 mm 2 mps 643 mmHg 74%
    18:00 +17°C° 0.5 mm 2 mps 643 mmHg 79%
    19:00 +16°C° 0.1 mm 2 mps 643 mmHg 83%
    20:00 +15°C° 0.1 mm 2 mps 643 mmHg 87%
    21:00 +14°C° 0.1 mm 2 mps 643 mmHg 90%
    22:00 +14°C° 0 mm 1 mps 643 mmHg 91%
    23:00 +13°C° 0 mm 1 mps 643 mmHg 91%

    Day after tomorrow, 23 June, Saturday

    Time Temperature Precipitation Wind Pressure Humidity
    00:00 +13°C° 0 mm 1 mps 642 mmHg 92%
    01:00 +13°C° 0 mm 1 mps 642 mmHg 91%
    02:00 +12°C° 0 mm 1 mps 642 mmHg 90%
    03:00 +12°C° 0 mm 1 mps 642 mmHg 90%
    04:00 +13°C° 0 mm 1 mps 642 mmHg 87%
    05:00 +14°C° 0 mm 1 mps 643 mmHg 84%
    06:00 +13°C° 0 mm 0 mps 643 mmHg 81%
    07:00 +16°C° 0 mm 1 mps 644 mmHg 73%
    08:00 +19°C° 0 mm 1 mps 645 mmHg 66%
    09:00 +21°C° 0 mm 1 mps 645 mmHg 58%
    10:00 +21°C° 0.1 mm 1 mps 645 mmHg 57%
    11:00 +22°C° 0.1 mm 1 mps 645 mmHg 55%
    12:00 +21°C° 0.1 mm 2 mps 645 mmHg 54%
    13:00 +22°C° 0.2 mm 1 mps 645 mmHg 55%
    14:00 +22°C° 0.2 mm 1 mps 645 mmHg 56%
    15:00 +22°C° 0.2 mm 1 mps 644 mmHg 57%
    16:00 +21°C° 0.2 mm 1 mps 644 mmHg 60%
    17:00 +20°C° 0.2 mm 1 mps 643 mmHg 63%
    18:00 +20°C° 0.2 mm 1 mps 643 mmHg 66%
    19:00 +18°C° 0.1 mm 1 mps 643 mmHg 71%
    20:00 +16°C° 0.1 mm 1 mps 643 mmHg 77%
    21:00 +14°C° 0.1 mm 1 mps 642 mmHg 83%
    22:00 +14°C° 0 mm 1 mps 642 mmHg 84%
    23:00 +13°C° 0 mm 1 mps 642 mmHg 85%

    24 June, Sunday

    Time Temperature Precipitation Wind Pressure Humidity
    00:00 +13°C° 0 mm 1 mps 642 mmHg 87%
    01:00 +13°C° 0 mm 1 mps 641 mmHg 87%
    02:00 +13°C° 0 mm 1 mps 641 mmHg 88%
    03:00 +12°C° 0 mm 1 mps 641 mmHg 88%
    04:00 +13°C° 0 mm 1 mps 641 mmHg 86%
    05:00 +14°C° 0 mm 1 mps 641 mmHg 84%
    06:00 +15°C° 0 mm 1 mps 642 mmHg 82%
    07:00 +18°C° 0 mm 1 mps 642 mmHg 70%
    08:00 +20°C° 0 mm 1 mps 643 mmHg 59%
    09:00 +22°C° 0 mm 1 mps 644 mmHg 48%
    10:00 +23°C° 0 mm 1 mps 644 mmHg 44%
    11:00 +24°C° 0 mm 2 mps 644 mmHg 41%
    12:00 +25°C° 0 mm 2 mps 644 mmHg 37%
    13:00 +25°C° 0 mm 2 mps 644 mmHg 37%
    14:00 +25°C° 0 mm 2 mps 643 mmHg 37%
    15:00 +25°C° 0 mm 2 mps 643 mmHg 37%
    16:00 +24°C° 0 mm 2 mps 643 mmHg 43%
    17:00 +21°C° 0 mm 2 mps 642 mmHg 50%
    18:00 +20°C° 0 mm 2 mps 642 mmHg 56%
    19:00 +18°C° 0 mm 2 mps 641 mmHg 63%
    20:00 +16°C° 0 mm 2 mps 641 mmHg 69%
    21:00 +14°C° 0 mm 1 mps 640 mmHg 76%
    22:00 +13°C° 0 mm 1 mps 640 mmHg 73%
    23:00 +13°C° 0 mm 1 mps 640 mmHg 71%

    25 June, Monday

    Time Temperature Precipitation Wind Pressure Humidity
    00:00 +12°C° 0 mm 1 mps 640 mmHg 68%
    01:00 +12°C° 0 mm 1 mps 640 mmHg 65%
    02:00 +12°C° 0 mm 1 mps 640 mmHg 62%
    03:00 +12°C° 0 mm 1 mps 639 mmHg 60%
    04:00 +13°C° 0 mm 1 mps 640 mmHg 59%
    05:00 +13°C° 0 mm 1 mps 640 mmHg 58%
    06:00 +14°C° 0 mm 1 mps 641 mmHg 57%
    07:00 +16°C° 0 mm 1 mps 641 mmHg 51%
    08:00 +19°C° 0 mm 1 mps 642 mmHg 46%
    09:00 +22°C° 0 mm 1 mps 643 mmHg 40%
    10:00 +23°C° 0 mm 1 mps 643 mmHg 39%
    11:00 +23°C° 0 mm 1 mps 643 mmHg 38%
    12:00 +24°C° 0 mm 2 mps 644 mmHg 37%
    13:00 +24°C° 0 mm 2 mps 643 mmHg 39%
    14:00 +24°C° 0 mm 2 mps 643 mmHg 41%
    15:00 +24°C° 0 mm 2 mps 643 mmHg 43%
    16:00 +23°C° 0 mm 2 mps 643 mmHg 50%
    17:00 +21°C° 0 mm 1 mps 642 mmHg 57%
    18:00 +20°C° 0 mm 1 mps 642 mmHg 64%
    19:00 +18°C° 0 mm 1 mps 641 mmHg 70%
    20:00 +16°C° 0 mm 1 mps 641 mmHg 77%
    21:00 +14°C° 0 mm 1 mps 641 mmHg 83%
    22:00 +14°C° 0 mm 1 mps 641 mmHg 84%
    23:00 +13°C° 0 mm 1 mps 641 mmHg 85%

    26 June, Tuesday

    Time Temperature Precipitation Wind Pressure Humidity
    00:00 +13°C° 0 mm 1 mps 641 mmHg 86%
    01:00 +13°C° 0 mm 1 mps 640 mmHg 86%
    02:00 +12°C° 0 mm 1 mps 640 mmHg 86%
    03:00 +12°C° 0 mm 1 mps 640 mmHg 85%
    04:00 +13°C° 0 mm 1 mps 640 mmHg 83%
    05:00 +14°C° 0 mm 1 mps 641 mmHg 81%
    06:00 +15°C° 0 mm 1 mps 641 mmHg 79%
    07:00 +18°C° 0 mm 1 mps 642 mmHg 70%
    08:00 +20°C° 0 mm 1 mps 643 mmHg 61%
    09:00 +21°C° 0 mm 1 mps 643 mmHg 52%
    10:00 +22°C° 0 mm 1 mps 643 mmHg 52%
    11:00 +21°C° 0 mm 2 mps 643 mmHg 52%
    12:00 +21°C° 0 mm 2 mps 643 mmHg 51%
    13:00 +21°C° 0.1 mm 2 mps 643 mmHg 54%
    14:00 +21°C° 0.1 mm 2 mps 643 mmHg 56%
    15:00 +21°C° 0.1 mm 2 mps 643 mmHg 58%
    16:00 +20°C° 0.1 mm 2 mps 642 mmHg 61%
    17:00 +19°C° 0.1 mm 2 mps 642 mmHg 65%
    18:00 +20°C° 0.1 mm 1 mps 642 mmHg 68%
    19:00 +18°C° 0 mm 1 mps 642 mmHg 74%
    20:00 +16°C° 0 mm 1 mps 642 mmHg 80%
    21:00 +14°C° 0 mm 1 mps 642 mmHg 86%
    22:00 +14°C° 0 mm 1 mps 641 mmHg 87%
    23:00 +13°C° 0 mm 1 mps 641 mmHg 88%
    Show more